Time,TemperatureF,DewpointF,PressureIn,WindDirection,WindDirectionDegrees,WindSpeedMPH,WindSpeedGustMPH,Humidity,HourlyPrecipIn,Conditions,Clouds,dailyrainin,SoftwareType,DateUTC
2013-06-27 00:11:00,63.7,57.4,30.26,NE,45,0.0,1.0,80,0.00,,,0.00,meteohub,2013-06-26 22:11:00,
2013-06-27 00:27:00,63.3,57.2,30.26,NE,45,0.0,2.0,80,0.00,,,0.00,meteohub,2013-06-26 22:27:00,
2013-06-27 00:43:00,63.1,57.6,30.26,NE,45,1.0,2.0,82,0.00,,,0.00,meteohub,2013-06-26 22:43:00,
2013-06-27 00:58:00,63.1,57.6,30.25,NE,45,0.0,1.0,82,0.00,,,0.00,meteohub,2013-06-26 22:58:00,
2013-06-27 01:14:00,63.1,57.6,30.25,NE,45,0.0,1.0,82,0.00,,,0.00,meteohub,2013-06-26 23:14:00,
2013-06-27 01:29:00,63.0,57.4,30.25,NE,45,0.0,1.0,82,0.00,,,0.00,meteohub,2013-06-26 23:29:00,
2013-06-27 01:44:00,62.4,56.8,30.25,NE,45,0.0,0.0,82,0.00,,,0.00,meteohub,2013-06-26 23:44:00,
2013-06-27 02:00:00,62.1,57.0,30.25,WNW,293,3.0,6.0,83,0.00,,,0.00,meteohub,2013-06-27 00:00:00,
2013-06-27 02:15:00,61.9,57.0,30.24,West,270,3.0,5.0,84,0.00,,,0.00,meteohub,2013-06-27 00:15:00,
2013-06-27 02:30:00,62.2,57.2,30.24,West,270,2.0,4.0,83,0.00,,,0.00,meteohub,2013-06-27 00:30:00,
2013-06-27 02:46:00,62.2,57.4,30.24,West,270,2.0,4.0,84,0.00,,,0.00,meteohub,2013-06-27 00:46:00,
2013-06-27 03:02:00,62.4,57.6,30.24,West,270,2.0,4.0,84,0.00,,,0.00,meteohub,2013-06-27 01:02:00,
2013-06-27 03:17:00,62.6,57.7,30.24,West,270,2.0,3.0,84,0.00,,,0.00,meteohub,2013-06-27 01:17:00,
2013-06-27 03:32:00,63.0,57.7,30.23,West,270,2.0,3.0,83,0.00,,,0.00,meteohub,2013-06-27 01:32:00,
2013-06-27 03:48:00,63.0,57.7,30.23,West,270,1.0,2.0,83,0.00,,,0.00,meteohub,2013-06-27 01:48:00,
2013-06-27 04:03:00,62.8,57.6,30.23,West,270,1.0,3.0,83,0.00,,,0.00,meteohub,2013-06-27 02:03:00,
2013-06-27 04:18:00,62.4,57.0,30.23,West,270,1.0,4.0,82,0.00,,,0.00,meteohub,2013-06-27 02:18:00,
2013-06-27 04:34:00,62.2,55.0,30.22,West,270,1.0,3.0,77,0.00,,,0.00,meteohub,2013-06-27 02:34:00,
2013-06-27 04:49:00,62.2,50.7,30.22,West,270,1.0,3.0,65,0.00,,,0.00,meteohub,2013-06-27 02:49:00,
2013-06-27 05:05:00,62.8,49.1,30.22,West,270,1.0,2.0,61,0.00,,,0.00,meteohub,2013-06-27 03:05:00,
2013-06-27 05:20:00,62.2,48.7,30.22,North,0,1.0,2.0,61,0.00,,,0.00,meteohub,2013-06-27 03:20:00,
2013-06-27 05:35:00,61.3,50.2,30.22,North,0,0.0,1.0,66,0.00,,,0.00,meteohub,2013-06-27 03:35:00,
2013-06-27 05:50:00,60.8,53.2,30.22,North,0,0.0,0.0,75,0.00,,,0.00,meteohub,2013-06-27 03:50:00,
2013-06-27 06:06:00,61.0,53.1,30.22,North,0,0.0,0.0,75,0.00,,,0.00,meteohub,2013-06-27 04:06:00,
2013-06-27 06:21:00,60.6,52.3,30.23,North,0,0.0,0.0,74,0.00,,,0.00,meteohub,2013-06-27 04:21:00,
2013-06-27 06:36:00,60.4,52.0,30.23,North,0,0.0,0.0,73,0.00,,,0.00,meteohub,2013-06-27 04:36:00,
2013-06-27 06:51:00,60.3,49.5,30.23,North,0,0.0,0.0,67,0.00,,,0.00,meteohub,2013-06-27 04:51:00,
2013-06-27 07:07:00,60.6,48.0,30.23,North,0,0.0,0.0,63,0.00,,,0.00,meteohub,2013-06-27 05:07:00,
2013-06-27 07:22:00,61.7,48.6,30.23,North,0,0.0,0.0,62,0.00,,,0.00,meteohub,2013-06-27 05:22:00,
2013-06-27 07:37:00,62.2,47.5,30.23,North,0,0.0,1.0,58,0.00,,,0.00,meteohub,2013-06-27 05:37:00,
2013-06-27 07:53:00,63.7,47.5,30.22,NNE,23,2.0,5.0,55,0.00,,,0.00,meteohub,2013-06-27 05:53:00,
2013-06-27 08:08:00,64.8,49.5,30.23,NNE,23,0.0,4.0,57,0.00,,,0.00,meteohub,2013-06-27 06:08:00,
2013-06-27 08:24:00,65.3,49.6,30.23,NNE,23,1.0,3.0,57,0.00,,,0.00,meteohub,2013-06-27 06:24:00,
2013-06-27 08:39:00,66.0,51.8,30.23,NNE,23,3.0,5.0,60,0.00,,,0.00,meteohub,2013-06-27 06:39:00,
2013-06-27 08:54:00,66.6,51.6,30.24,ENE,68,2.0,6.0,58,0.00,,,0.00,meteohub,2013-06-27 06:54:00,
2013-06-27 09:09:00,67.8,53.8,30.24,NNE,23,2.0,4.0,60,0.00,,,0.00,meteohub,2013-06-27 07:09:00,
2013-06-27 09:24:00,68.4,54.3,30.24,NNE,23,2.0,4.0,61,0.00,,,0.00,meteohub,2013-06-27 07:24:00,
2013-06-27 09:40:00,69.8,55.2,30.24,NE,45,3.0,8.0,60,0.00,,,0.00,meteohub,2013-06-27 07:40:00,
2013-06-27 09:55:00,70.9,55.9,30.23,ENE,68,5.0,10.0,59,0.00,,,0.00,meteohub,2013-06-27 07:55:00,
2013-06-27 10:10:00,71.4,55.4,30.24,NE,45,5.0,9.0,57,0.00,,,0.00,meteohub,2013-06-27 08:10:00,
2013-06-27 10:26:00,71.6,54.5,30.23,ENE,68,8.0,12.0,54,0.00,,,0.00,meteohub,2013-06-27 08:26:00,
2013-06-27 10:41:00,72.1,54.5,30.23,ENE,68,7.0,15.0,53,0.00,,,0.00,meteohub,2013-06-27 08:41:00,
2013-06-27 10:57:00,72.3,53.6,30.23,ENE,68,8.0,12.0,51,0.00,,,0.00,meteohub,2013-06-27 08:57:00,
2013-06-27 11:12:00,72.7,53.8,30.23,ENE,68,8.0,15.0,51,0.00,,,0.00,meteohub,2013-06-27 09:12:00,
2013-06-27 11:28:00,72.9,53.4,30.23,ENE,68,8.0,13.0,50,0.00,,,0.00,meteohub,2013-06-27 09:28:00,
2013-06-27 11:43:00,73.2,52.3,30.23,ENE,68,9.0,17.0,48,0.00,,,0.00,meteohub,2013-06-27 09:43:00,
2013-06-27 11:59:00,73.8,51.4,30.22,NE,45,8.0,15.0,45,0.00,,,0.00,meteohub,2013-06-27 09:59:00,
2013-06-27 12:14:00,74.3,51.6,30.22,NE,45,7.0,14.0,44,0.00,,,0.00,meteohub,2013-06-27 10:14:00,
2013-06-27 12:30:00,74.1,50.4,30.22,ENE,68,7.0,14.0,43,0.00,,,0.00,meteohub,2013-06-27 10:30:00,
2013-06-27 12:45:00,74.5,50.5,30.23,ENE,68,7.0,11.0,43,0.00,,,0.00,meteohub,2013-06-27 10:45:00,
2013-06-27 13:00:00,74.8,49.3,30.23,NE,45,6.0,14.0,40,0.00,,,0.00,meteohub,2013-06-27 11:00:00,
2013-06-27 13:16:00,75.7,49.5,30.22,ENE,68,9.0,14.0,39,0.00,,,0.00,meteohub,2013-06-27 11:16:00,
2013-06-27 13:31:00,75.6,49.8,30.22,ENE,68,6.0,13.0,40,0.00,,,0.00,meteohub,2013-06-27 11:31:00,
2013-06-27 13:47:00,76.3,50.0,30.22,NE,45,6.0,13.0,39,0.00,,,0.00,meteohub,2013-06-27 11:47:00,
2013-06-27 14:02:00,75.7,49.8,30.22,ENE,68,8.0,14.0,40,0.00,,,0.00,meteohub,2013-06-27 12:02:00,
2013-06-27 14:17:00,76.3,50.4,30.22,ENE,68,8.0,14.0,40,0.00,,,0.00,meteohub,2013-06-27 12:17:00,
2013-06-27 14:33:00,76.3,50.2,30.21,ENE,68,7.0,15.0,40,0.00,,,0.00,meteohub,2013-06-27 12:33:00,
2013-06-27 14:48:00,76.5,50.9,30.21,NE,45,6.0,11.0,40,0.00,,,0.00,meteohub,2013-06-27 12:48:00,
2013-06-27 15:04:00,77.0,50.9,30.20,ENE,68,6.0,12.0,40,0.00,,,0.00,meteohub,2013-06-27 13:04:00,
2013-06-27 15:19:00,76.6,50.9,30.20,ENE,68,3.0,13.0,40,0.00,,,0.00,meteohub,2013-06-27 13:19:00,
2013-06-27 15:35:00,77.7,51.4,30.20,East,90,1.0,4.0,40,0.00,,,0.00,meteohub,2013-06-27 13:35:00,
2013-06-27 15:50:00,76.5,56.3,30.19,SW,225,4.0,9.0,49,0.00,,,0.00,meteohub,2013-06-27 13:50:00,
2013-06-27 16:05:00,76.5,56.7,30.19,SW,225,7.0,11.0,50,0.00,,,0.00,meteohub,2013-06-27 14:05:00,
2013-06-27 16:21:00,75.0,55.8,30.19,SSW,203,7.0,14.0,51,0.00,,,0.00,meteohub,2013-06-27 14:21:00,
2013-06-27 16:37:00,75.2,56.1,30.18,SW,225,7.0,15.0,51,0.00,,,0.00,meteohub,2013-06-27 14:37:00,
2013-06-27 16:52:00,75.0,56.3,30.19,SW,225,8.0,15.0,52,0.00,,,0.00,meteohub,2013-06-27 14:52:00,
2013-06-27 17:08:00,75.0,56.5,30.18,SW,225,10.0,15.0,52,0.00,,,0.00,meteohub,2013-06-27 15:08:00,
2013-06-27 17:23:00,73.9,55.8,30.18,SW,225,9.0,16.0,53,0.00,,,0.00,meteohub,2013-06-27 15:23:00,
2013-06-27 17:38:00,73.9,56.1,30.18,SW,225,9.0,14.0,53,0.00,,,0.00,meteohub,2013-06-27 15:38:00,
2013-06-27 17:54:00,73.8,54.9,30.17,SW,225,8.0,13.0,51,0.00,,,0.00,meteohub,2013-06-27 15:54:00,
2013-06-27 18:09:00,73.6,54.7,30.17,SW,225,10.0,14.0,51,0.00,,,0.00,meteohub,2013-06-27 16:09:00,
2013-06-27 18:25:00,72.9,54.3,30.17,SW,225,9.0,13.0,52,0.00,,,0.00,meteohub,2013-06-27 16:25:00,
2013-06-27 18:41:00,72.3,56.3,30.17,SW,225,8.0,14.0,57,0.00,,,0.00,meteohub,2013-06-27 16:41:00,
2013-06-27 18:56:00,72.3,55.9,30.17,SW,225,6.0,12.0,56,0.00,,,0.00,meteohub,2013-06-27 16:56:00,
2013-06-27 19:12:00,71.8,55.8,30.17,SW,225,6.0,12.0,57,0.00,,,0.00,meteohub,2013-06-27 17:12:00,
2013-06-27 19:27:00,72.0,55.8,30.17,SW,225,6.0,10.0,56,0.00,,,0.00,meteohub,2013-06-27 17:27:00,
2013-06-27 19:42:00,71.4,55.6,30.17,SSW,203,6.0,11.0,57,0.00,,,0.00,meteohub,2013-06-27 17:42:00,
2013-06-27 19:57:00,71.1,56.8,30.17,SW,225,7.0,11.0,60,0.00,,,0.00,meteohub,2013-06-27 17:57:00,
2013-06-27 20:13:00,70.2,56.7,30.17,SSW,203,6.0,14.0,62,0.00,,,0.00,meteohub,2013-06-27 18:13:00,
2013-06-27 20:28:00,69.6,57.2,30.17,SSW,203,6.0,10.0,64,0.00,,,0.00,meteohub,2013-06-27 18:28:00,
2013-06-27 20:44:00,69.4,57.7,30.17,SW,225,5.0,9.0,66,0.00,,,0.00,meteohub,2013-06-27 18:44:00,
2013-06-27 20:59:00,68.5,57.9,30.17,SW,225,5.0,9.0,68,0.00,,,0.00,meteohub,2013-06-27 18:59:00,
2013-06-27 21:15:00,68.2,57.9,30.17,SW,225,5.0,10.0,69,0.00,,,0.00,meteohub,2013-06-27 19:15:00,
2013-06-27 21:31:00,67.6,57.9,30.17,SW,225,4.0,8.0,71,0.00,,,0.00,meteohub,2013-06-27 19:31:00,
2013-06-27 21:46:00,67.5,57.7,30.17,SW,225,3.0,6.0,71,0.00,,,0.00,meteohub,2013-06-27 19:46:00,
2013-06-27 22:01:00,67.5,57.7,30.18,West,270,3.0,5.0,71,0.00,,,0.00,meteohub,2013-06-27 20:01:00,
2013-06-27 22:17:00,67.1,57.6,30.19,West,270,3.0,7.0,71,0.00,,,0.00,meteohub,2013-06-27 20:17:00,
2013-06-27 22:34:00,66.9,57.6,30.19,WSW,248,2.0,5.0,72,0.00,,,0.00,meteohub,2013-06-27 20:34:00,
2013-06-27 22:49:00,66.9,57.6,30.20,West,270,2.0,4.0,72,0.00,,,0.00,meteohub,2013-06-27 20:49:00,
2013-06-27 23:03:00,66.7,57.7,30.20,WSW,248,1.0,4.0,73,0.00,,,0.00,meteohub,2013-06-27 21:03:00,
2013-06-27 23:20:00,66.0,57.2,30.21,NE,45,2.0,4.0,73,0.00,,,0.00,meteohub,2013-06-27 21:20:00,
2013-06-27 23:35:00,64.8,56.7,30.21,NE,45,1.0,3.0,75,0.00,,,0.00,meteohub,2013-06-27 21:35:00,
2013-06-27 23:51:00,64.2,56.1,30.21,NNE,23,2.0,4.0,75,0.00,,,0.00,meteohub,2013-06-27 21:51:00,